Location: Unspecified
(0.0000°N, 0.0000°E)
Time: 14:16:06
(UTC+00:00)

Vanguard 1 Rocket - Pass Details

Date: 20 March 2018
Orbit: 654 x 4223 km, 34.3° (Epoch: 21 April)

Event Time Altitude Azimuth Distance (km) Brightness Sun altitude
Rises 22:11:00 0° 320° (NW) 5,693 11.7 -60.9°
Reaches altitude 10° 22:14:16 10° 325° (NW) 5,078 11.3 -61.7°
Enters shadow 22:18:48 25° 336° (NNW) 4,409 10.8 -62.9°
Maximum altitude 22:30:35 54° 40° (NE) 4,074 - -65.8°
Drops below altitude 10° 22:55:29 10° 112° (ESE) 7,419 - -72.0°
Exits shadow 23:00:58 - 115° (ESE) 8,276 12.1 -73.4°
Sets 23:01:28 0° 116° (ESE) 8,352 12.1 -73.5°
